Location: Borgo
(42.3939°N, 9.2791°E)
Time: 05:29:09
(UTC+00:00)

SJ 16-02 - Pass Details

Date: 27 February 2020
Orbit: 607 x 616 km, 75.0° (Epoch: 09 April)

Event Time Altitude Azimuth Distance (km) Brightness Sun altitude
Rises 19:01:23 0° 334° (NNW) 2,885 5.3 -21.4°
Reaches altitude 10° 19:03:44 10° 327° (NNW) 1,974 4.5 -21.8°
Maximum altitude 19:07:52 41° 258° (WSW) 893 2.6 -22.6°
Drops below altitude 10° 19:11:57 10° 188° (S) 1,954 3.9 -23.3°
Enters shadow 19:12:52 - 185° (S) 2,307 4.2 -23.5°
